Regional Weather Roundup
Issued by NWS Jackson, KY

Home | Current Version | Previous Version | Text Only | Print | Product List | Glossary On
Versions: 1 2 3 4 5 6 7 8 9 10 11 12 13 14 15 16 17 18 19 20 21 22 23 24 25 26 27 28 29 30 31 32 33 34 35 36 37 38 39 40 41 42 43 44 45 46 47 48 49 50
628
ASUS43 KJKL 071210
RWRJKL

EAST KENTUCKY HOURLY WEATHER ROUNDUP
NATIONAL WEATHER SERVICE JACKSON KY
700 AM EST WED DEC 07 2016

NOTE: "FAIR" INDICATES FEW OR NO CLOUDS BELOW 12,000 FEET WITH
NO SIGNIFICANT WEATHER AND/OR OBSTRUCTIONS TO VISIBILITY.

* THESE REPORTS ARE NOT UNDER NWS QUALITY CONTROL AND MAY NOT
  REPORT WEATHER SUCH AS PRECIPITATION AND FOG.

KYZ079-080-083-085-087-088-110-112-115-119-120-071300
...EASTERN KENTUCKY...

CITY           SKY/WX    TMP DP  RH WIND       PRES   REMARKS
JACKSON        CLEAR     34  29  82 VRB5      30.10R WCI  30
6HR MIN TEMP:  33; 6HR MAX TEMP:  41;

LONDON         PTCLDY    36  32  85 N7        30.10R WCI  30
6HR MIN TEMP:  36; 6HR MAX TEMP:  41;

SOMERSET*      PTCLDY    34  30  86 NE5       30.13S WCI  30
MONTICELLO*    CLOUDY    37  33  85 N13       30.14R WCI  29
6HR MIN TEMP:  34; 6HR MAX TEMP:  41;

WILLIAMSBURG*  MOSUNNY   36  36 100 N3        30.10R
MIDDLESBORO*   CLOUDY    38  36  94 CALM      30.10R
6HR MIN TEMP:  38; 6HR MAX TEMP:  44;

HARLAN APT*    PTSUNNY   37  34  87 CALM      30.08R
PIKE CO APT*   CLOUDY    36  36  98 N6        30.08R WCI  31
BIG SANDY APT* PTSUNNY   36  33  89 CALM      30.10R
6HR MIN TEMP:  36; 6HR MAX TEMP:  42;

MOREHEAD APT*  CLOUDY    32  30  93 CALM      30.14R
ASHLAND*       CLOUDY    36  30  80 CALM      30.12R
$$

KYZ035-036-041-042-044-050-067-078-099-071300
...CENTRAL KENTUCKY...

CITY           SKY/WX    TMP DP  RH WIND       PRES   REMARKS
MT STERLING*   PTCLDY    30  30 100 CALM      30.15R FOG
FLEMING/MASON* CLOUDY    32  29  91 CALM      30.14R
DANVILLE*      CLOUDY    32  32 100 CALM      30.13S
LEXINGTON      PTCLDY    32  28  85 W3        30.14R
6HR MIN TEMP:  32; 6HR MAX TEMP:  38;

FRANKFORT      CLOUDY    33  27  78 CALM      30.13R
6HR MIN TEMP:  33; 6HR MAX TEMP:  36;

LOUISVILLE     PTCLDY    33  25  72 NW5       30.15R WCI  29
6HR MIN TEMP:  33; 6HR MAX TEMP:  38;

LEBANON*         N/A     32  30  93 CALM      30.14S
GLASGOW*       PTCLDY   N/A N/A N/A N3        30.15R HAZE
BOWLING GREEN  FOG       32  30  92 CALM      30.16R VSB 1/2
6HR MIN TEMP:  31; 6HR MAX TEMP:  40;

$$

KYZ091>093-OHZ055-061-077-WVZ005-015-034-035-042-071300
...SOUTHERN OHIO/WEST VIRGINIA...

CITY           SKY/WX    TMP DP  RH WIND       PRES   REMARKS
COVINGTON      MOCLDY    31  22  69 W5        30.12R WCI  26
COLUMBUS       MOCLDY    29  26  89 W8        30.10R WCI  21
DAYTON         PTCLDY    25  19  78 NW5       30.09R WCI  19
WILMINGTON     CLOUDY    28  24  85 W5        30.09S WCI  23
HUNTINGTON     PTCLDY    35  29  78 W3        30.10S
CHARLESTON     MOCLDY    38  33  82 N6        30.09R WCI  33
PINEVILLE*       N/A     35  32  90 MISG      30.10S FOG
BECKLEY        PTCLDY    32  28  85 NW3       30.03S
BLUEFIELD      CLOUDY    34  30  85 NW7       30.02F WCI  28
LOGAN CO APT*  CLOUDY    37  34  87 CALM      30.06S
$$

VAZ002-007-008-TNZ017-027-036-066-071-071300
...SOUTHWEST VIRGINIA/EAST TENNESSEE...

CITY           SKY/WX    TMP DP  RH WIND       PRES   REMARKS
WISE*          PTCLDY    34  34 100 N3        30.04S
JONESVILLE*      N/A     34  34 100 CALM      30.10R
ABINGDON*      CLEAR     38  32  80 CALM      30.05R
BRISTOL        PTCLDY    39  33  79 CALM      30.06R
MORRISTOWN*    CLOUDY    41  37  87 CALM      30.07R
SEVIERVILLE*   CLOUDY    43  37  81 CALM      30.07R
KNOXVILLE      CLOUDY    43  36  76 NE8       30.07R
OAK RIDGE      CLOUDY    43  35  73 VRB3      30.09R
CROSSVILLE     CLOUDY    37  33  85 NE7       30.07R WCI  32
NASHVILLE      PTCLDY    36  31  82 N6        30.15R WCI  31
$$

...KEY TO REMARKS...
VSB - VISIBILITY IN MILES
WCI - WIND CHILL INDEX
HX  - HEAT INDEX

$$




USA.gov is the U.S. government's official web portal to all federal, state and local government web resources and services.